Time,TemperatureF,DewpointF,PressureIn,WindDirection,WindDirectionDegrees,WindSpeedMPH,WindSpeedGustMPH,Humidity,HourlyPrecipIn,Conditions,Clouds,dailyrainin,SoftwareType,DateUTC
2013-01-17 00:03:00,37.6,30.1,30.23,WNW,293,3.6,4.7,74,0.00,,,0.00,WUHU216HW,2013-01-17 06:03:00,
2013-01-17 00:08:00,37.6,30.1,30.24,NW,315,2.5,4.0,74,0.00,,,0.00,WUHU216HW,2013-01-17 06:08:00,
2013-01-17 00:13:00,37.4,29.9,30.24,WNW,293,3.6,4.0,74,0.00,,,0.00,WUHU216HW,2013-01-17 06:13:00,
2013-01-17 00:18:00,37.1,29.5,30.24,NW,315,4.7,4.7,74,0.00,,,0.00,WUHU216HW,2013-01-17 06:18:00,
2013-01-17 00:23:00,36.7,29.2,30.25,NNW,338,4.3,4.9,74,0.00,,,0.00,WUHU216HW,2013-01-17 06:23:00,
2013-01-17 00:28:00,36.4,29.2,30.25,NW,315,4.7,5.4,75,0.00,,,0.00,WUHU216HW,2013-01-17 06:28:00,
2013-01-17 00:33:00,36.4,29.2,30.25,WNW,293,4.0,5.4,75,0.00,,,0.00,WUHU216HW,2013-01-17 06:33:00,
2013-01-17 00:38:00,36.4,29.2,30.25,NW,315,3.4,4.7,75,0.00,,,0.00,WUHU216HW,2013-01-17 06:38:00,
2013-01-17 00:43:00,36.4,28.8,30.25,NNW,338,2.5,3.6,74,0.00,,,0.00,WUHU216HW,2013-01-17 06:43:00,
2013-01-17 00:48:00,36.4,28.8,30.25,NNW,338,4.0,4.0,74,0.00,,,0.00,WUHU216HW,2013-01-17 06:48:00,
2013-01-17 00:53:00,36.2,28.6,30.26,NW,315,3.4,4.5,74,0.00,,,0.00,WUHU216HW,2013-01-17 06:53:00,
2013-01-17 00:58:00,36.0,28.8,30.26,NNW,338,3.4,5.8,75,0.00,,,0.00,WUHU216HW,2013-01-17 06:58:00,
2013-01-17 01:03:00,35.8,28.3,30.26,NNW,338,3.1,5.8,74,0.00,,,0.00,WUHU216HW,2013-01-17 07:03:00,
2013-01-17 01:08:00,35.6,28.1,30.26,NNW,338,2.9,4.9,74,0.00,,,0.00,WUHU216HW,2013-01-17 07:08:00,
2013-01-17 01:13:00,35.6,28.1,30.26,NNW,338,2.7,3.6,74,0.00,,,0.00,WUHU216HW,2013-01-17 07:13:00,
2013-01-17 01:18:00,35.5,28.3,30.26,NW,315,3.4,3.4,75,0.00,,,0.00,WUHU216HW,2013-01-17 07:18:00,
2013-01-17 01:23:00,35.3,28.1,30.27,North,0,3.4,4.0,75,0.00,,,0.00,WUHU216HW,2013-01-17 07:23:00,
2013-01-17 01:28:00,35.3,28.5,30.27,NNW,338,6.0,6.0,76,0.00,,,0.00,WUHU216HW,2013-01-17 07:28:00,
2013-01-17 01:33:00,35.1,28.5,30.27,NNW,338,3.8,6.0,77,0.00,,,0.00,WUHU216HW,2013-01-17 07:33:00,
2013-01-17 01:38:00,34.9,28.4,30.27,NNW,338,5.1,5.1,77,0.00,,,0.00,WUHU216HW,2013-01-17 07:38:00,
2013-01-17 01:43:00,34.9,28.4,30.28,NW,315,4.3,5.6,77,0.00,,,0.00,WUHU216HW,2013-01-17 07:43:00,
2013-01-17 01:48:00,34.7,28.5,30.28,NNW,338,4.3,5.8,78,0.00,,,0.00,WUHU216HW,2013-01-17 07:48:00,
2013-01-17 01:53:00,34.6,28.4,30.28,NW,315,4.5,5.8,78,0.00,,,0.00,WUHU216HW,2013-01-17 07:53:00,
2013-01-17 01:58:00,34.6,28.6,30.28,NW,315,6.5,6.7,79,0.00,,,0.00,WUHU216HW,2013-01-17 07:58:00,
2013-01-17 02:03:00,34.4,28.8,30.28,NW,315,5.4,6.7,80,0.00,,,0.00,WUHU216HW,2013-01-17 08:03:00,
2013-01-17 02:08:00,34.4,28.8,30.28,NNW,338,4.0,6.0,80,0.00,,,0.00,WUHU216HW,2013-01-17 08:08:00,
2013-01-17 02:13:00,34.2,28.3,30.29,NNW,338,4.5,6.3,79,0.00,,,0.00,WUHU216HW,2013-01-17 08:13:00,
2013-01-17 02:18:00,34.0,28.4,30.30,North,0,4.5,6.3,80,0.00,,,0.00,WUHU216HW,2013-01-17 08:18:00,
2013-01-17 02:23:00,33.8,27.9,30.29,North,0,4.3,5.4,79,0.00,,,0.00,WUHU216HW,2013-01-17 08:23:00,
2013-01-17 02:28:00,33.8,27.9,30.30,North,0,4.5,6.0,79,0.00,,,0.00,WUHU216HW,2013-01-17 08:28:00,
2013-01-17 02:33:00,33.7,27.8,30.30,North,0,4.3,6.0,79,0.00,,,0.00,WUHU216HW,2013-01-17 08:33:00,
2013-01-17 02:38:00,33.5,27.6,30.30,NNE,23,6.3,6.3,79,0.00,,,0.00,WUHU216HW,2013-01-17 08:38:00,
2013-01-17 02:43:00,33.5,27.9,30.30,NNW,338,3.6,6.3,80,0.00,,,0.00,WUHU216HW,2013-01-17 08:43:00,
2013-01-17 02:48:00,33.3,27.8,30.31,NNW,338,3.1,6.7,80,0.00,,,0.00,WUHU216HW,2013-01-17 08:48:00,
2013-01-17 02:53:00,33.1,27.6,30.31,NE,45,4.3,6.7,80,0.00,,,0.00,WUHU216HW,2013-01-17 08:53:00,
2013-01-17 02:58:00,32.8,27.3,30.31,NNE,23,3.4,6.0,80,0.00,,,0.00,WUHU216HW,2013-01-17 08:58:00,
2013-01-17 03:03:00,32.6,27.5,30.31,NE,45,4.5,7.2,81,0.00,,,0.00,WUHU216HW,2013-01-17 09:03:00,
2013-01-17 03:08:00,32.2,27.1,30.31,NNW,338,4.0,7.2,81,0.00,,,0.00,WUHU216HW,2013-01-17 09:08:00,
2013-01-17 03:13:00,32.2,27.1,30.31,NNE,23,5.1,6.5,81,0.00,,,0.00,WUHU216HW,2013-01-17 09:13:00,
2013-01-17 03:18:00,32.0,26.9,30.32,NNE,23,3.4,5.4,81,0.00,,,0.00,WUHU216HW,2013-01-17 09:18:00,
2013-01-17 03:23:00,31.9,26.7,30.32,NNW,338,2.5,4.7,81,0.00,,,0.00,WUHU216HW,2013-01-17 09:23:00,
2013-01-17 03:28:00,31.7,26.6,30.32,NNE,23,1.6,4.0,81,0.00,,,0.00,WUHU216HW,2013-01-17 09:28:00,
2013-01-17 03:33:00,31.7,26.6,30.32,NNE,23,3.1,4.5,81,0.00,,,0.00,WUHU216HW,2013-01-17 09:33:00,
2013-01-17 03:38:00,31.5,26.4,30.32,NNE,23,3.4,4.5,81,0.00,,,0.00,WUHU216HW,2013-01-17 09:38:00,
2013-01-17 03:43:00,31.3,26.2,30.32,North,0,2.0,4.0,81,0.00,,,0.00,WUHU216HW,2013-01-17 09:43:00,
2013-01-17 03:48:00,31.3,25.9,30.33,NE,45,1.6,4.0,80,0.00,,,0.00,WUHU216HW,2013-01-17 09:48:00,
2013-01-17 03:53:00,31.1,25.7,30.33,NNW,338,1.6,4.0,80,0.00,,,0.00,WUHU216HW,2013-01-17 09:53:00,
2013-01-17 03:58:00,31.0,25.6,30.33,WNW,293,2.5,2.9,80,0.00,,,0.00,WUHU216HW,2013-01-17 09:58:00,
2013-01-17 04:03:00,30.6,25.2,30.34,NW,315,3.1,4.0,80,0.00,,,0.00,WUHU216HW,2013-01-17 10:03:00,
2013-01-17 04:08:00,30.1,24.7,30.34,WNW,293,3.4,4.0,80,0.00,,,0.00,WUHU216HW,2013-01-17 10:08:00,
2013-01-17 04:13:00,29.9,24.8,30.34,WNW,293,2.7,3.8,81,0.00,,,0.00,WUHU216HW,2013-01-17 10:13:00,
2013-01-17 04:18:00,29.5,24.4,30.34,NW,315,1.8,2.9,81,0.00,,,0.00,WUHU216HW,2013-01-17 10:18:00,
2013-01-17 04:23:00,29.5,24.1,30.35,WNW,293,1.8,2.7,80,0.00,,,0.00,WUHU216HW,2013-01-17 10:23:00,
2013-01-17 04:28:00,29.3,24.2,30.35,NW,315,3.4,3.4,81,0.00,,,0.00,WUHU216HW,2013-01-17 10:28:00,
2013-01-17 04:33:00,29.2,24.0,30.36,WNW,293,2.9,3.4,81,0.00,,,0.00,WUHU216HW,2013-01-17 10:33:00,
2013-01-17 04:38:00,29.2,24.3,30.36,NW,315,2.9,3.4,82,0.00,,,0.00,WUHU216HW,2013-01-17 10:38:00,
2013-01-17 04:43:00,28.8,23.9,30.36,WNW,293,2.9,3.4,82,0.00,,,0.00,WUHU216HW,2013-01-17 10:43:00,
2013-01-17 04:48:00,28.8,24.3,30.36,WNW,293,3.4,3.4,83,0.00,,,0.00,WUHU216HW,2013-01-17 10:48:00,
2013-01-17 04:53:00,28.4,23.6,30.36,WNW,293,2.7,3.4,82,0.00,,,0.00,WUHU216HW,2013-01-17 10:53:00,
2013-01-17 04:58:00,28.4,24.0,30.37,WNW,293,2.5,3.1,83,0.00,,,0.00,WUHU216HW,2013-01-17 10:58:00,
2013-01-17 05:03:00,28.4,24.0,30.37,WNW,293,2.5,2.7,83,0.00,,,0.00,WUHU216HW,2013-01-17 11:03:00,
2013-01-17 05:08:00,28.4,24.0,30.37,NW,315,2.0,2.9,83,0.00,,,0.00,WUHU216HW,2013-01-17 11:08:00,
2013-01-17 05:13:00,28.4,24.0,30.37,NW,315,1.6,3.1,83,0.00,,,0.00,WUHU216HW,2013-01-17 11:13:00,
2013-01-17 05:18:00,28.8,24.3,30.38,NW,315,1.1,3.1,83,0.00,,,0.00,WUHU216HW,2013-01-17 11:18:00,
2013-01-17 05:23:00,29.0,24.5,30.38,WNW,293,3.4,3.4,83,0.00,,,0.00,WUHU216HW,2013-01-17 11:23:00,
2013-01-17 05:28:00,28.8,24.3,30.38,WNW,293,2.9,3.4,83,0.00,,,0.00,WUHU216HW,2013-01-17 11:28:00,
2013-01-17 05:33:00,28.6,24.1,30.38,NW,315,2.0,3.4,83,0.00,,,0.00,WUHU216HW,2013-01-17 11:33:00,
2013-01-17 05:38:00,28.4,24.0,30.38,NW,315,2.9,2.9,83,0.00,,,0.00,WUHU216HW,2013-01-17 11:38:00,
2013-01-17 05:43:00,28.3,23.8,30.38,NW,315,2.5,3.4,83,0.00,,,0.00,WUHU216HW,2013-01-17 11:43:00,
2013-01-17 05:48:00,28.1,23.6,30.39,NNW,338,1.1,3.4,83,0.00,,,0.00,WUHU216HW,2013-01-17 11:48:00,
2013-01-17 05:53:00,27.9,23.0,30.39,NNW,338,2.0,2.9,82,0.00,,,0.00,WUHU216HW,2013-01-17 11:53:00,
2013-01-17 05:58:00,28.1,23.6,30.39,NNW,338,2.5,3.1,83,0.00,,,0.00,WUHU216HW,2013-01-17 11:58:00,
2013-01-17 06:03:00,28.1,23.6,30.39,NNW,338,3.1,3.1,83,0.00,,,0.00,WUHU216HW,2013-01-17 12:03:00,
2013-01-17 06:08:00,28.1,23.6,30.40,North,0,0.4,3.1,83,0.00,,,0.00,WUHU216HW,2013-01-17 12:08:00,
2013-01-17 06:13:00,27.9,23.0,30.40,NNW,338,1.1,2.0,82,0.00,,,0.00,WUHU216HW,2013-01-17 12:13:00,
2013-01-17 06:18:00,27.7,22.9,30.40,NNW,338,2.7,2.9,82,0.00,,,0.00,WUHU216HW,2013-01-17 12:18:00,
2013-01-17 06:23:00,27.4,22.5,30.40,NW,315,2.0,2.9,82,0.00,,,0.00,WUHU216HW,2013-01-17 12:23:00,
2013-01-17 06:28:00,27.0,22.1,30.41,NW,315,2.5,2.5,82,0.00,,,0.00,WUHU216HW,2013-01-17 12:28:00,
2013-01-17 06:33:00,26.8,22.0,30.41,WNW,293,2.5,2.5,82,0.00,,,0.00,WUHU216HW,2013-01-17 12:33:00,
2013-01-17 06:38:00,26.8,22.3,30.41,WNW,293,1.1,2.5,83,0.00,,,0.00,WUHU216HW,2013-01-17 12:38:00,
2013-01-17 06:43:00,26.8,22.3,30.41,WNW,293,1.3,2.2,83,0.00,,,0.00,WUHU216HW,2013-01-17 12:43:00,
2013-01-17 06:48:00,26.5,22.0,30.41,WNW,293,2.0,2.2,83,0.00,,,0.00,WUHU216HW,2013-01-17 12:48:00,
2013-01-17 06:53:00,26.3,21.8,30.41,NNW,338,2.5,2.5,83,0.00,,,0.00,WUHU216HW,2013-01-17 12:53:00,
2013-01-17 06:58:00,26.3,21.5,30.41,NNW,338,1.3,3.1,82,0.00,,,0.00,WUHU216HW,2013-01-17 12:58:00,
2013-01-17 07:03:00,26.3,21.5,30.41,North,0,1.1,3.1,82,0.00,,,0.00,WUHU216HW,2013-01-17 13:03:00,
2013-01-17 07:08:00,26.3,21.5,30.42,NW,315,2.5,2.5,82,0.00,,,0.00,WUHU216HW,2013-01-17 13:08:00,
2013-01-17 07:13:00,26.5,21.7,30.43,NW,315,2.5,3.8,82,0.00,,,0.00,WUHU216HW,2013-01-17 13:13:00,
2013-01-17 07:18:00,26.6,21.8,30.43,NNW,338,1.8,3.8,82,0.00,,,0.00,WUHU216HW,2013-01-17 13:18:00,
2013-01-17 07:23:00,26.6,21.8,30.43,NNW,338,1.1,2.0,82,0.00,,,0.00,WUHU216HW,2013-01-17 13:23:00,
2013-01-17 07:28:00,26.5,21.3,30.43,North,0,0.7,1.1,81,0.00,,,0.00,WUHU216HW,2013-01-17 13:28:00,
2013-01-17 07:33:00,26.5,21.3,30.43,NNW,338,0.4,1.1,81,0.00,,,0.00,WUHU216HW,2013-01-17 13:33:00,
2013-01-17 07:38:00,26.5,21.3,30.43,NNE,23,0.7,0.9,81,0.00,,,0.00,WUHU216HW,2013-01-17 13:38:00,
2013-01-17 07:43:00,26.6,21.5,30.43,NE,45,0.4,0.7,81,0.00,,,0.00,WUHU216HW,2013-01-17 13:43:00,
2013-01-17 07:48:00,26.6,21.5,30.43,NNE,23,0.4,0.9,81,0.00,,,0.00,WUHU216HW,2013-01-17 13:48:00,
2013-01-17 07:53:00,27.0,21.9,30.44,North,0,0.2,1.1,81,0.00,,,0.00,WUHU216HW,2013-01-17 13:53:00,
2013-01-17 07:58:00,27.5,22.1,30.44,North,0,1.6,1.6,80,0.00,,,0.00,WUHU216HW,2013-01-17 13:58:00,
2013-01-17 08:03:00,28.8,23.4,30.44,NNW,338,0.7,1.6,80,0.00,,,0.00,WUHU216HW,2013-01-17 14:03:00,
2013-01-17 08:08:00,30.1,24.3,30.44,NNW,338,1.1,1.1,79,0.00,,,0.00,WUHU216HW,2013-01-17 14:08:00,
2013-01-17 08:13:00,31.0,24.9,30.44,East,90,0.2,1.8,78,0.00,,,0.00,WUHU216HW,2013-01-17 14:13:00,
2013-01-17 08:18:00,31.3,25.3,30.44,ENE,68,1.3,1.8,78,0.00,,,0.00,WUHU216HW,2013-01-17 14:18:00,
2013-01-17 08:23:00,32.0,25.7,30.45,NNW,338,0.4,2.0,77,0.00,,,0.00,WUHU216HW,2013-01-17 14:23:00,
2013-01-17 08:28:00,32.9,26.2,30.45,NNW,338,0.2,2.0,76,0.00,,,0.00,WUHU216HW,2013-01-17 14:28:00,
2013-01-17 08:33:00,34.0,27.2,30.46,North,0,1.8,2.0,76,0.00,,,0.00,WUHU216HW,2013-01-17 14:33:00,
2013-01-17 08:38:00,35.6,28.1,30.46,NW,315,2.0,2.9,74,0.00,,,0.00,WUHU216HW,2013-01-17 14:38:00,
2013-01-17 08:43:00,36.9,28.7,30.46,North,0,0.9,2.9,72,0.00,,,0.00,WUHU216HW,2013-01-17 14:43:00,
2013-01-17 08:48:00,37.6,28.5,30.46,NE,45,2.7,2.9,69,0.00,,,0.00,WUHU216HW,2013-01-17 14:48:00,
2013-01-17 08:53:00,38.2,28.5,30.47,NNE,23,4.0,4.7,68,0.00,,,0.00,WUHU216HW,2013-01-17 14:53:00,
2013-01-17 08:58:00,37.8,27.5,30.47,North,0,4.3,4.7,66,0.00,,,0.00,WUHU216HW,2013-01-17 14:58:00,
2013-01-17 09:03:00,37.4,27.1,30.47,NNW,338,4.7,4.7,66,0.00,,,0.00,WUHU216HW,2013-01-17 15:03:00,
2013-01-17 09:08:00,37.1,26.0,30.47,East,90,3.4,5.4,64,0.00,,,0.00,WUHU216HW,2013-01-17 15:08:00,
2013-01-17 09:13:00,36.9,25.8,30.47,NE,45,9.6,9.6,64,0.00,,,0.00,WUHU216HW,2013-01-17 15:13:00,
2013-01-17 09:18:00,36.4,24.6,30.48,NE,45,8.1,9.6,62,0.00,,,0.00,WUHU216HW,2013-01-17 15:18:00,
2013-01-17 09:23:00,36.0,25.0,30.48,NE,45,2.7,8.5,64,0.00,,,0.00,WUHU216HW,2013-01-17 15:23:00,
2013-01-17 09:28:00,36.4,24.6,30.48,NE,45,6.3,8.9,62,0.00,,,0.00,WUHU216HW,2013-01-17 15:28:00,
2013-01-17 09:33:00,36.4,24.6,30.49,NNE,23,4.0,8.9,62,0.00,,,0.00,WUHU216HW,2013-01-17 15:33:00,
2013-01-17 09:38:00,36.4,24.6,30.49,NE,45,8.5,8.7,62,0.00,,,0.00,WUHU216HW,2013-01-17 15:38:00,
2013-01-17 09:43:00,36.9,24.8,30.49,North,0,6.9,8.5,61,0.00,,,0.00,WUHU216HW,2013-01-17 15:43:00,
2013-01-17 09:48:00,37.3,24.7,30.49,NNE,23,5.4,7.8,60,0.00,,,0.00,WUHU216HW,2013-01-17 15:48:00,
2013-01-17 09:53:00,37.8,24.8,30.50,NNE,23,4.7,7.6,59,0.00,,,0.00,WUHU216HW,2013-01-17 15:53:00,
2013-01-17 09:58:00,38.3,24.4,30.50,NNE,23,7.4,7.4,57,0.00,,,0.00,WUHU216HW,2013-01-17 15:58:00,
2013-01-17 10:03:00,39.1,25.5,30.50,North,0,4.5,7.4,58,0.00,,,0.00,WUHU216HW,2013-01-17 16:03:00,
2013-01-17 10:08:00,40.0,25.0,30.50,NNE,23,4.3,5.4,55,0.00,,,0.00,WUHU216HW,2013-01-17 16:08:00,
2013-01-17 10:13:00,40.7,25.7,30.50,SE,135,2.9,5.4,55,0.00,,,0.00,WUHU216HW,2013-01-17 16:13:00,
2013-01-17 10:18:00,41.8,25.8,30.51,NE,45,1.8,3.8,53,0.00,,,0.00,WUHU216HW,2013-01-17 16:18:00,
2013-01-17 10:23:00,42.8,26.5,30.51,NNE,23,4.3,4.3,52,0.00,,,0.00,WUHU216HW,2013-01-17 16:23:00,
2013-01-17 10:28:00,43.2,26.3,30.51,NNE,23,3.1,4.3,51,0.00,,,0.00,WUHU216HW,2013-01-17 16:28:00,
2013-01-17 10:33:00,44.1,26.2,30.51,NNW,338,1.8,4.9,49,0.00,,,0.00,WUHU216HW,2013-01-17 16:33:00,
2013-01-17 10:38:00,44.8,26.8,30.50,NNW,338,1.1,4.9,49,0.00,,,0.00,WUHU216HW,2013-01-17 16:38:00,
2013-01-17 10:43:00,45.4,26.7,30.50,NNW,338,1.6,3.6,48,0.00,,,0.00,WUHU216HW,2013-01-17 16:43:00,
2013-01-17 10:49:00,45.5,26.9,30.50,North,0,1.8,4.0,48,0.00,,,0.00,WUHU216HW,2013-01-17 16:49:00,
2013-01-17 10:54:00,46.4,26.6,30.50,NW,315,3.4,4.0,46,0.00,,,0.00,WUHU216HW,2013-01-17 16:54:00,
2013-01-17 10:59:00,45.7,24.9,30.50,North,0,1.8,4.5,44,0.00,,,0.00,WUHU216HW,2013-01-17 16:59:00,
2013-01-17 11:04:00,46.8,26.5,30.50,NNE,23,2.5,4.5,45,0.00,,,0.00,WUHU216HW,2013-01-17 17:04:00,
2013-01-17 11:09:00,48.6,27.6,30.50,NE,45,2.0,3.1,44,0.00,,,0.00,WUHU216HW,2013-01-17 17:09:00,
2013-01-17 11:14:00,49.7,26.3,30.50,NW,315,3.8,5.1,40,0.00,,,0.00,WUHU216HW,2013-01-17 17:14:00,
2013-01-17 11:19:00,49.7,24.9,30.50,NW,315,4.3,5.1,38,0.00,,,0.00,WUHU216HW,2013-01-17 17:19:00,
2013-01-17 11:24:00,49.5,25.5,30.50,North,0,2.5,4.3,39,0.00,,,0.00,WUHU216HW,2013-01-17 17:24:00,
2013-01-17 11:29:00,49.7,25.7,30.49,ESE,113,0.4,3.4,39,0.00,,,0.00,WUHU216HW,2013-01-17 17:29:00,
2013-01-17 11:34:00,49.9,25.8,30.49,NNW,338,1.1,3.1,39,0.00,,,0.00,WUHU216HW,2013-01-17 17:34:00,
2013-01-17 11:39:00,50.8,27.3,30.49,NNW,338,1.3,3.1,40,0.00,,,0.00,WUHU216HW,2013-01-17 17:39:00,
2013-01-17 11:44:00,53.3,26.8,30.49,NNE,23,3.8,5.4,36,0.00,,,0.00,WUHU216HW,2013-01-17 17:44:00,
2013-01-17 11:49:00,53.8,27.3,30.49,NW,315,1.3,5.4,36,0.00,,,0.00,WUHU216HW,2013-01-17 17:49:00,
2013-01-17 11:54:00,54.0,28.2,30.48,NNE,23,1.1,4.0,37,0.00,,,0.00,WUHU216HW,2013-01-17 17:54:00,
2013-01-17 11:59:00,54.0,25.4,30.48,NE,45,0.4,3.4,33,0.00,,,0.00,WUHU216HW,2013-01-17 17:59:00,
2013-01-17 12:04:00,54.7,28.1,30.48,West,270,1.8,3.4,36,0.00,,,0.00,WUHU216HW,2013-01-17 18:04:00,
2013-01-17 12:09:00,55.3,27.2,30.48,NNW,338,1.1,2.2,34,0.00,,,0.00,WUHU216HW,2013-01-17 18:09:00,
2013-01-17 12:14:00,55.6,26.0,30.48,West,270,0.4,3.4,32,0.00,,,0.00,WUHU216HW,2013-01-17 18:14:00,
2013-01-17 12:19:00,54.7,26.0,30.47,WNW,293,1.8,3.4,33,0.00,,,0.00,WUHU216HW,2013-01-17 18:19:00,
2013-01-17 12:24:00,54.2,24.8,30.47,NW,315,2.2,2.2,32,0.00,,,0.00,WUHU216HW,2013-01-17 18:24:00,
2013-01-17 12:29:00,55.4,26.6,30.47,NE,45,2.9,2.9,33,0.00,,,0.00,WUHU216HW,2013-01-17 18:29:00,
2013-01-17 12:34:00,56.0,26.4,30.47,NW,315,4.5,4.5,32,0.00,,,0.00,WUHU216HW,2013-01-17 18:34:00,
2013-01-17 12:39:00,55.1,26.3,30.46,NNW,338,4.0,4.5,33,0.00,,,0.00,WUHU216HW,2013-01-17 18:39:00,
2013-01-17 12:44:00,55.1,24.9,30.46,NW,315,3.4,4.0,31,0.00,,,0.00,WUHU216HW,2013-01-17 18:44:00,
2013-01-17 12:49:00,55.1,25.6,30.46,NW,315,0.4,3.6,32,0.00,,,0.00,WUHU216HW,2013-01-17 18:49:00,
2013-01-17 12:54:00,56.5,28.3,30.46,NNW,338,1.1,3.4,34,0.00,,,0.00,WUHU216HW,2013-01-17 18:54:00,
2013-01-17 12:59:00,57.2,28.2,30.46,NE,45,1.8,3.4,33,0.00,,,0.00,WUHU216HW,2013-01-17 18:59:00,
2013-01-17 13:04:00,56.9,26.5,30.46,WNW,293,1.8,2.9,31,0.00,,,0.00,WUHU216HW,2013-01-17 19:04:00,
2013-01-17 13:09:00,56.5,26.8,30.46,NE,45,1.1,4.0,32,0.00,,,0.00,WUHU216HW,2013-01-17 19:09:00,
2013-01-17 13:14:00,55.3,25.8,30.46,WNW,293,4.7,4.7,32,0.00,,,0.00,WUHU216HW,2013-01-17 19:14:00,
2013-01-17 13:19:00,54.0,25.4,30.46,West,270,4.0,4.7,33,0.00,,,0.00,WUHU216HW,2013-01-17 19:19:00,
2013-01-17 13:24:00,52.7,24.3,30.45,West,270,1.8,5.4,33,0.00,,,0.00,WUHU216HW,2013-01-17 19:24:00,
2013-01-17 13:29:00,50.2,24.0,30.46,SSW,203,1.8,5.4,36,0.00,,,0.00,WUHU216HW,2013-01-17 19:29:00,
2013-01-17 13:34:00,49.0,24.3,30.45,WNW,293,3.6,4.9,38,0.00,,,0.00,WUHU216HW,2013-01-17 19:34:00,
2013-01-17 13:39:00,48.6,24.0,30.45,NW,315,2.5,4.0,38,0.00,,,0.00,WUHU216HW,2013-01-17 19:39:00,
2013-01-17 13:44:00,49.1,24.5,30.45,WNW,293,4.0,4.0,38,0.00,,,0.00,WUHU216HW,2013-01-17 19:44:00,
2013-01-17 13:49:00,49.9,25.1,30.45,WNW,293,1.3,4.0,38,0.00,,,0.00,WUHU216HW,2013-01-17 19:49:00,
2013-01-17 13:54:00,49.3,24.7,30.45,West,270,1.3,3.6,38,0.00,,,0.00,WUHU216HW,2013-01-17 19:54:00,
2013-01-17 13:59:00,48.6,24.7,30.45,NW,315,4.7,4.7,39,0.00,,,0.00,WUHU216HW,2013-01-17 19:59:00,
2013-01-17 14:04:00,48.6,25.4,30.45,NNW,338,1.6,4.7,40,0.00,,,0.00,WUHU216HW,2013-01-17 20:04:00,
2013-01-17 14:09:00,49.3,25.3,30.45,NNW,338,3.4,4.5,39,0.00,,,0.00,WUHU216HW,2013-01-17 20:09:00,
2013-01-17 14:14:00,50.4,27.0,30.45,WNW,293,3.4,4.0,40,0.00,,,0.00,WUHU216HW,2013-01-17 20:14:00,
2013-01-17 14:19:00,50.6,26.5,30.45,WNW,293,1.1,3.6,39,0.00,,,0.00,WUHU216HW,2013-01-17 20:19:00,
2013-01-17 14:24:00,50.9,26.7,30.45,SE,135,0.4,3.6,39,0.00,,,0.00,WUHU216HW,2013-01-17 20:24:00,
2013-01-17 14:29:00,52.0,26.4,30.44,NNW,338,2.5,2.5,37,0.00,,,0.00,WUHU216HW,2013-01-17 20:29:00,
2013-01-17 14:34:00,52.7,28.4,30.45,WNW,293,1.3,2.7,39,0.00,,,0.00,WUHU216HW,2013-01-17 20:34:00,
2013-01-17 14:39:00,53.3,27.6,30.44,WNW,293,2.2,2.7,37,0.00,,,0.00,WUHU216HW,2013-01-17 20:39:00,
2013-01-17 14:44:00,52.9,26.5,30.45,SW,225,4.0,4.0,36,0.00,,,0.00,WUHU216HW,2013-01-17 20:44:00,
2013-01-17 14:49:00,51.8,26.9,30.45,NNW,338,2.9,4.7,38,0.00,,,0.00,WUHU216HW,2013-01-17 20:49:00,
2013-01-17 14:54:00,52.7,28.4,30.45,NNE,23,1.8,4.7,39,0.00,,,0.00,WUHU216HW,2013-01-17 20:54:00,
2013-01-17 14:59:00,53.1,27.4,30.45,NW,315,1.8,3.8,37,0.00,,,0.00,WUHU216HW,2013-01-17 20:59:00,
2013-01-17 15:04:00,53.5,27.6,30.45,SW,225,2.2,3.4,37,0.00,,,0.00,WUHU216HW,2013-01-17 21:04:00,
2013-01-17 15:09:00,53.8,28.7,30.45,NW,315,0.9,3.4,38,0.00,,,0.00,WUHU216HW,2013-01-17 21:09:00,
2013-01-17 15:14:00,55.1,27.7,30.44,WNW,293,2.5,3.1,35,0.00,,,0.00,WUHU216HW,2013-01-17 21:14:00,
2013-01-17 15:19:00,56.2,29.3,30.44,NNE,23,1.8,3.1,36,0.00,,,0.00,WUHU216HW,2013-01-17 21:19:00,
2013-01-17 15:24:00,58.0,31.0,30.45,NW,315,3.1,3.6,36,0.00,,,0.00,WUHU216HW,2013-01-17 21:24:00,
2013-01-17 15:29:00,58.3,29.2,30.44,SSW,203,1.3,3.6,33,0.00,,,0.00,WUHU216HW,2013-01-17 21:29:00,
2013-01-17 15:34:00,58.0,28.2,30.44,South,180,2.5,3.1,32,0.00,,,0.00,WUHU216HW,2013-01-17 21:34:00,
2013-01-17 15:39:00,56.7,27.0,30.44,NW,315,1.6,3.8,32,0.00,,,0.00,WUHU216HW,2013-01-17 21:39:00,
2013-01-17 15:44:00,56.7,27.7,30.44,WNW,293,3.8,3.8,33,0.00,,,0.00,WUHU216HW,2013-01-17 21:44:00,
2013-01-17 15:49:00,56.2,27.3,30.44,WNW,293,4.3,4.3,33,0.00,,,0.00,WUHU216HW,2013-01-17 21:49:00,
2013-01-17 15:54:00,55.6,26.7,30.45,West,270,1.8,4.3,33,0.00,,,0.00,WUHU216HW,2013-01-17 21:54:00,
2013-01-17 15:59:00,55.6,26.7,30.44,WNW,293,2.5,2.5,33,0.00,,,0.00,WUHU216HW,2013-01-17 21:59:00,
2013-01-17 16:04:00,55.1,26.3,30.44,SW,225,2.2,4.0,33,0.00,,,0.00,WUHU216HW,2013-01-17 22:04:00,
2013-01-17 16:09:00,54.4,25.7,30.44,SSW,203,3.8,4.5,33,0.00,,,0.00,WUHU216HW,2013-01-17 22:09:00,
2013-01-17 16:14:00,53.3,26.1,30.44,West,270,2.7,4.5,35,0.00,,,0.00,WUHU216HW,2013-01-17 22:14:00,
2013-01-17 16:19:00,54.0,27.5,30.44,SW,225,1.1,3.4,36,0.00,,,0.00,WUHU216HW,2013-01-17 22:19:00,
2013-01-17 16:24:00,55.3,28.5,30.44,WNW,293,1.1,2.2,36,0.00,,,0.00,WUHU216HW,2013-01-17 22:24:00,
2013-01-17 16:29:00,54.7,28.1,30.45,West,270,1.8,3.1,36,0.00,,,0.00,WUHU216HW,2013-01-17 22:29:00,
2013-01-17 16:34:00,54.2,28.3,30.44,West,270,2.5,3.1,37,0.00,,,0.00,WUHU216HW,2013-01-17 22:34:00,
2013-01-17 16:39:00,54.0,28.2,30.45,WNW,293,2.5,2.5,37,0.00,,,0.00,WUHU216HW,2013-01-17 22:39:00,
2013-01-17 16:44:00,53.3,27.6,30.45,WNW,293,1.6,2.5,37,0.00,,,0.00,WUHU216HW,2013-01-17 22:44:00,
2013-01-17 16:49:00,51.5,26.6,30.45,West,270,1.3,1.8,38,0.00,,,0.00,WUHU216HW,2013-01-17 22:49:00,
2013-01-17 16:54:00,49.7,25.7,30.45,SW,225,1.1,2.5,39,0.00,,,0.00,WUHU216HW,2013-01-17 22:54:00,
2013-01-17 16:59:00,48.2,25.6,30.45,SW,225,1.6,2.5,41,0.00,,,0.00,WUHU216HW,2013-01-17 22:59:00,
2013-01-17 17:04:00,47.9,25.2,30.45,SW,225,0.4,2.2,41,0.00,,,0.00,WUHU216HW,2013-01-17 23:04:00,
2013-01-17 17:09:00,47.2,25.1,30.45,SSW,203,0.4,1.6,42,0.00,,,0.00,WUHU216HW,2013-01-17 23:09:00,
2013-01-17 17:14:00,47.0,24.9,30.45,SW,225,0.9,1.1,42,0.00,,,0.00,WUHU216HW,2013-01-17 23:14:00,
2013-01-17 17:19:00,46.4,25.0,30.45,SSW,203,0.7,1.1,43,0.00,,,0.00,WUHU216HW,2013-01-17 23:19:00,
2013-01-17 17:24:00,46.1,24.7,30.45,SW,225,0.0,0.9,43,0.00,,,0.00,WUHU216HW,2013-01-17 23:24:00,
2013-01-17 17:29:00,45.7,24.4,30.45,WSW,248,0.0,0.4,43,0.00,,,0.00,WUHU216HW,2013-01-17 23:29:00,
2013-01-17 17:34:00,45.2,24.4,30.45,WSW,248,0.0,0.0,44,0.00,,,0.00,WUHU216HW,2013-01-17 23:34:00,
2013-01-17 17:39:00,44.8,24.1,30.45,South,180,0.0,0.2,44,0.00,,,0.00,WUHU216HW,2013-01-17 23:39:00,
2013-01-17 17:44:00,43.9,23.9,30.45,SE,135,0.0,0.2,45,0.00,,,0.00,WUHU216HW,2013-01-17 23:44:00,
2013-01-17 17:49:00,43.2,23.2,30.45,SE,135,0.0,0.0,45,0.00,,,0.00,WUHU216HW,2013-01-17 23:49:00,
2013-01-17 17:54:00,42.8,23.4,30.45,SE,135,0.4,0.7,46,0.00,,,0.00,WUHU216HW,2013-01-17 23:54:00,
2013-01-17 17:59:00,42.7,23.8,30.45,SE,135,0.0,0.7,47,0.00,,,0.00,WUHU216HW,2013-01-17 23:59:00,
2013-01-17 18:04:00,42.3,23.4,30.45,SE,135,0.0,0.4,47,0.00,,,0.00,WUHU216HW,2013-01-18 00:04:00,
2013-01-17 18:09:00,41.9,23.0,30.45,SE,135,0.0,0.2,47,0.00,,,0.00,WUHU216HW,2013-01-18 00:09:00,
2013-01-17 18:14:00,41.6,23.2,30.45,SE,135,0.2,0.2,48,0.00,,,0.00,WUHU216HW,2013-01-18 00:14:00,
2013-01-17 18:19:00,41.2,22.9,30.45,SSE,158,0.0,0.4,48,0.00,,,0.00,WUHU216HW,2013-01-18 00:19:00,
2013-01-17 18:24:00,40.9,23.0,30.45,SSE,158,0.0,0.4,49,0.00,,,0.00,WUHU216HW,2013-01-18 00:24:00,
2013-01-17 18:29:00,40.3,22.6,30.45,SE,135,0.0,0.0,49,0.00,,,0.00,WUHU216HW,2013-01-18 00:29:00,
2013-01-17 18:34:00,40.0,22.2,30.45,SE,135,0.2,0.4,49,0.00,,,0.00,WUHU216HW,2013-01-18 00:34:00,
2013-01-17 18:39:00,39.6,22.0,30.44,SE,135,0.4,0.9,49,0.00,,,0.00,WUHU216HW,2013-01-18 00:39:00,
2013-01-17 18:44:00,39.6,22.5,30.45,SSE,158,0.0,0.9,50,0.00,,,0.00,WUHU216HW,2013-01-18 00:44:00,
2013-01-17 18:49:00,39.1,22.4,30.45,ESE,113,0.9,0.9,51,0.00,,,0.00,WUHU216HW,2013-01-18 00:49:00,
2013-01-17 18:54:00,38.5,22.0,30.45,ESE,113,1.1,1.1,51,0.00,,,0.00,WUHU216HW,2013-01-18 00:54:00,
2013-01-17 18:59:00,38.0,21.9,30.45,ESE,113,1.1,1.1,52,0.00,,,0.00,WUHU216HW,2013-01-18 00:59:00,
2013-01-17 19:04:00,37.8,21.7,30.45,ESE,113,1.1,1.3,52,0.00,,,0.00,WUHU216HW,2013-01-18 01:04:00,
2013-01-17 19:09:00,37.6,22.0,30.45,ESE,113,1.1,1.3,53,0.00,,,0.00,WUHU216HW,2013-01-18 01:09:00,
2013-01-17 19:14:00,37.3,21.7,30.45,ESE,113,1.1,1.1,53,0.00,,,0.00,WUHU216HW,2013-01-18 01:14:00,
2013-01-17 19:19:00,36.7,21.6,30.45,East,90,1.3,1.3,54,0.00,,,0.00,WUHU216HW,2013-01-18 01:19:00,
2013-01-17 19:24:00,36.4,21.2,30.45,ESE,113,0.9,1.3,54,0.00,,,0.00,WUHU216HW,2013-01-18 01:24:00,
2013-01-17 19:29:00,36.4,21.2,30.45,ESE,113,0.9,1.1,54,0.00,,,0.00,WUHU216HW,2013-01-18 01:29:00,
2013-01-17 19:34:00,36.0,21.4,30.45,ESE,113,0.4,1.1,55,0.00,,,0.00,WUHU216HW,2013-01-18 01:34:00,
2013-01-17 19:39:00,36.0,21.4,30.45,SE,135,1.6,1.6,55,0.00,,,0.00,WUHU216HW,2013-01-18 01:39:00,
2013-01-17 19:44:00,35.8,21.7,30.45,SE,135,1.1,1.6,56,0.00,,,0.00,WUHU216HW,2013-01-18 01:44:00,
2013-01-17 19:49:00,35.3,21.2,30.45,SE,135,0.4,1.6,56,0.00,,,0.00,WUHU216HW,2013-01-18 01:49:00,
2013-01-17 19:54:00,34.9,20.8,30.45,SE,135,1.3,1.8,56,0.00,,,0.00,WUHU216HW,2013-01-18 01:54:00,
2013-01-17 19:59:00,34.7,20.6,30.45,SE,135,1.6,2.2,56,0.00,,,0.00,WUHU216HW,2013-01-18 01:59:00,
2013-01-17 20:04:00,34.6,20.9,30.45,SE,135,2.2,2.7,57,0.00,,,0.00,WUHU216HW,2013-01-18 02:04:00,
2013-01-17 20:09:00,34.6,20.9,30.45,SE,135,2.2,2.7,57,0.00,,,0.00,WUHU216HW,2013-01-18 02:09:00,
2013-01-17 20:14:00,34.6,20.9,30.45,SE,135,2.0,2.5,57,0.00,,,0.00,WUHU216HW,2013-01-18 02:14:00,
2013-01-17 20:19:00,34.6,21.2,30.45,SE,135,1.6,2.0,58,0.00,,,0.00,WUHU216HW,2013-01-18 02:19:00,
2013-01-17 20:24:00,34.4,21.1,30.45,SE,135,1.6,2.0,58,0.00,,,0.00,WUHU216HW,2013-01-18 02:24:00,
2013-01-17 20:29:00,34.2,20.9,30.44,SSE,158,1.1,1.8,58,0.00,,,0.00,WUHU216HW,2013-01-18 02:29:00,
2013-01-17 20:34:00,34.2,20.9,30.44,SE,135,1.8,2.2,58,0.00,,,0.00,WUHU216HW,2013-01-18 02:34:00,
2013-01-17 20:39:00,34.2,20.9,30.44,ESE,113,1.6,2.5,58,0.00,,,0.00,WUHU216HW,2013-01-18 02:39:00,
2013-01-17 20:44:00,33.8,21.0,30.44,SE,135,1.8,2.5,59,0.00,,,0.00,WUHU216HW,2013-01-18 02:44:00,
2013-01-17 20:49:00,33.5,20.7,30.44,SE,135,1.8,2.5,59,0.00,,,0.00,WUHU216HW,2013-01-18 02:49:00,
2013-01-17 20:54:00,33.3,20.5,30.44,SE,135,2.0,2.5,59,0.00,,,0.00,WUHU216HW,2013-01-18 02:54:00,
2013-01-17 20:59:00,32.9,20.6,30.44,SSE,158,2.5,2.5,60,0.00,,,0.00,WUHU216HW,2013-01-18 02:59:00,
2013-01-17 21:04:00,32.9,21.0,30.44,SE,135,2.5,2.5,61,0.00,,,0.00,WUHU216HW,2013-01-18 03:04:00,
2013-01-17 21:09:00,32.9,21.3,30.44,SE,135,2.7,3.1,62,0.00,,,0.00,WUHU216HW,2013-01-18 03:09:00,
2013-01-17 21:14:00,32.9,21.0,30.44,SE,135,3.1,3.1,61,0.00,,,0.00,WUHU216HW,2013-01-18 03:14:00,
2013-01-17 21:19:00,33.1,21.2,30.44,SSE,158,2.9,3.1,61,0.00,,,0.00,WUHU216HW,2013-01-18 03:19:00,
2013-01-17 21:24:00,33.3,21.7,30.43,SE,135,2.2,3.1,62,0.00,,,0.00,WUHU216HW,2013-01-18 03:24:00,
2013-01-17 21:29:00,33.3,21.7,30.43,SE,135,3.4,3.4,62,0.00,,,0.00,WUHU216HW,2013-01-18 03:29:00,
2013-01-17 21:34:00,33.5,21.8,30.43,SE,135,2.9,4.0,62,0.00,,,0.00,WUHU216HW,2013-01-18 03:34:00,
2013-01-17 21:39:00,33.5,21.8,30.43,ESE,113,4.0,4.0,62,0.00,,,0.00,WUHU216HW,2013-01-18 03:39:00,
2013-01-17 21:44:00,33.5,21.8,30.43,SE,135,3.6,4.0,62,0.00,,,0.00,WUHU216HW,2013-01-18 03:44:00,
2013-01-17 21:49:00,33.3,22.1,30.43,ESE,113,3.8,4.0,63,0.00,,,0.00,WUHU216HW,2013-01-18 03:49:00,
2013-01-17 21:54:00,33.3,22.8,30.42,SSE,158,3.4,4.0,65,0.00,,,0.00,WUHU216HW,2013-01-18 03:54:00,
2013-01-17 21:59:00,33.1,22.2,30.42,SSE,158,2.0,3.6,64,0.00,,,0.00,WUHU216HW,2013-01-18 03:59:00,
2013-01-17 22:04:00,33.1,22.6,30.42,SSE,158,2.5,3.4,65,0.00,,,0.00,WUHU216HW,2013-01-18 04:04:00,
2013-01-17 22:09:00,33.1,23.0,30.41,SSE,158,3.4,4.0,66,0.00,,,0.00,WUHU216HW,2013-01-18 04:09:00,
2013-01-17 22:14:00,33.1,23.3,30.41,SSE,158,4.3,5.4,67,0.00,,,0.00,WUHU216HW,2013-01-18 04:14:00,
2013-01-17 22:19:00,33.1,23.0,30.41,SSE,158,3.4,5.4,66,0.00,,,0.00,WUHU216HW,2013-01-18 04:19:00,
2013-01-17 22:24:00,33.5,23.2,30.41,South,180,2.0,4.0,66,0.00,,,0.00,WUHU216HW,2013-01-18 04:24:00,
2013-01-17 22:29:00,33.3,23.1,30.41,South,180,2.9,3.1,66,0.00,,,0.00,WUHU216HW,2013-01-18 04:29:00,
2013-01-17 22:34:00,33.3,23.1,30.41,South,180,2.9,4.0,66,0.00,,,0.00,WUHU216HW,2013-01-18 04:34:00,
2013-01-17 22:39:00,33.3,23.1,30.41,South,180,1.8,4.0,66,0.00,,,0.00,WUHU216HW,2013-01-18 04:39:00,
2013-01-17 22:44:00,33.3,23.5,30.41,SSW,203,2.9,3.4,67,0.00,,,0.00,WUHU216HW,2013-01-18 04:44:00,
2013-01-17 22:49:00,33.5,23.2,30.41,South,180,2.0,3.4,66,0.00,,,0.00,WUHU216HW,2013-01-18 04:49:00,
2013-01-17 22:54:00,33.5,23.6,30.41,SSW,203,2.5,4.0,67,0.00,,,0.00,WUHU216HW,2013-01-18 04:54:00,
2013-01-17 22:59:00,33.5,23.9,30.41,South,180,3.6,4.0,68,0.00,,,0.00,WUHU216HW,2013-01-18 04:59:00,
2013-01-17 23:01:00,33.5,23.9,30.41,South,180,3.6,4.0,68,0.00,,,0.00,WUHU216HW,2013-01-18 05:01:00,
2013-01-17 23:03:00,33.5,23.9,30.41,SSW,203,3.8,4.0,68,0.00,,,0.00,WUHU216HW,2013-01-18 05:03:00,
2013-01-17 23:08:00,33.3,23.5,30.41,South,180,3.4,4.0,67,0.00,,,0.00,WUHU216HW,2013-01-18 05:08:00,
2013-01-17 23:13:00,33.5,23.6,30.41,South,180,2.9,3.4,67,0.00,,,0.00,WUHU216HW,2013-01-18 05:13:00,
2013-01-17 23:18:00,33.5,23.9,30.41,SSW,203,3.4,3.4,68,0.00,,,0.00,WUHU216HW,2013-01-18 05:18:00,
2013-01-17 23:23:00,33.3,23.9,30.41,SSE,158,3.1,4.0,68,0.00,,,0.00,WUHU216HW,2013-01-18 05:23:00,
2013-01-17 23:28:00,33.1,24.0,30.40,SSW,203,2.7,4.0,69,0.00,,,0.00,WUHU216HW,2013-01-18 05:28:00,
2013-01-17 23:33:00,33.1,23.7,30.40,South,180,3.4,3.6,68,0.00,,,0.00,WUHU216HW,2013-01-18 05:33:00,
2013-01-17 23:38:00,33.1,23.7,30.40,South,180,3.1,4.0,68,0.00,,,0.00,WUHU216HW,2013-01-18 05:38:00,
2013-01-17 23:43:00,32.9,23.9,30.40,South,180,2.5,4.3,69,0.00,,,0.00,WUHU216HW,2013-01-18 05:43:00,
2013-01-17 23:48:00,32.8,24.0,30.40,SSW,203,3.4,4.3,70,0.00,,,0.00,WUHU216HW,2013-01-18 05:48:00,
2013-01-17 23:53:00,32.8,24.0,30.40,South,180,2.7,4.0,70,0.00,,,0.00,WUHU216HW,2013-01-18 05:53:00,
2013-01-17 23:58:00,32.6,23.9,30.40,SSW,203,3.4,4.0,70,0.00,,,0.00,WUHU216HW,2013-01-18 05:58:00,